Weather Roundup
Issued by NWS

Home | Current Version | Previous Version | Text Only | Print | Product List | Glossary On
Versions: 1 2 3 4 5 6 7 8 9 10 11 12 13 14 15 16 17 18 19 20 21 22 23 24 25 26 27 28 29 30 31 32 33 34 35 36 37 38 39 40 41 42 43 44 45 46 47 48 49 50
000
NZUS93 KARX 030859
HRRWXR

CURRENT HOURLY OBSERVATIONS ACROSS
MUCH OF THE UPPER MISSISSIPPI VALLEY
NATIONAL WEATHER SERVICE LA CROSSE WI
300 AM CST SAT DEC 03 2016


...SOUTHEAST MINNESOTA...


CITY           SKY/WX    TMP DP  RH WIND       PRES   REMARKS
ROCHESTER      NOT AVBL
ROCHESTER/MAYO NOT AVBL
WINONA         CLOUDY    32  23  69 W3        30.33S
AUSTIN         CLOUDY    28  21  74 W5        30.30R WCI  23
ALBERT LEA     CLOUDY    34  27  75 CALM      30.30R
DODGE CENTER   CLOUDY    27  21  80 NW5       30.29S WCI  21
PRESTON        CLOUDY    28  21  77 W8        30.31R WCI  19
OWATONNA       CLOUDY    28  21  74 N3        30.30R
FARIBAULT      CLOUDY    28  21  74 NW3       30.30S
$$

...ELSEWHERE IN MINNESOTA...


CITY           SKY/WX    TMP DP  RH WIND       PRES   REMARKS
MINNEAPOLIS    CLOUDY    30  22  72 W7        30.30S WCI  23
INTNL FALLS    CLOUDY    23  21  92 CALM      30.24
DULUTH         CLOUDY    27  24  89 NW5       30.24  WCI  22
RED WING       CLOUDY    30  21  69 CALM      30.30R
REDWOOD FALLS  CLOUDY    29  20  69 NW5       30.30S WCI  24
MANKATO        FLURRIES  28  23  81 NW5       30.31  WCI  23
WORTHINGTON    CLOUDY    25  21  85 SW3       30.30
FAIRMONT       CLOUDY    29  20  69 NW9       30.32  WCI  20
$$

...SOUTHWEST WISCONSIN...


CITY           SKY/WX    TMP DP  RH WIND       PRES   REMARKS
LA CROSSE      CLOUDY    32  21  64 W7        30.33R WCI  26
PRAIRIE DU CHI NOT AVBL
BOSCOBEL       CLOUDY    32  21  64 W3        30.34S
LONE ROCK      NOT AVBL
PLATTEVILLE    CLOUDY    31  25  81 W8        30.33R WCI  23
FORT MC COY    CLOUDY    31  23  72 W3        30.31S
MAUSTON-NEW LI NOT AVBL
VIROQUA        CLOUDY    28  22  76 NW5       30.29S WCI  23
WIS DELLS      CLOUDY    30  23  74 NW3       30.29S
$$

...ELSEWHERE IN WISCONSIN...


CITY           SKY/WX    TMP DP  RH WIND       PRES   REMARKS
MILWAUKEE      NOT AVBL
MADISON        CLOUDY    30  22  72 NW3       30.31R
GREEN BAY      CLOUDY    34  28  79 W6        30.28S WCI  29
EAU CLAIRE     NOT AVBL
BLACK RVR FLS  CLOUDY    32  23  70 W3        30.29S
MEDFORD        CLOUDY    27  22  80 W6        30.25S WCI  21
WAUSAU         NOT AVBL
WIS RAPIDS     NOT AVBL
MARSHFIELD     NOT AVBL
RICE LAKE      CLOUDY    29  25  83 W3        30.29S
$$

...NORTHEAST IOWA...


CITY           SKY/WX    TMP DP  RH WIND       PRES   REMARKS
WATERLOO       CLOUDY    30  25  81 CALM      30.36R
DUBUQUE        CLOUDY    30  23  75 W10       30.34R WCI  21
DECORAH        CLOUDY    28  23  80 W3        30.32R
MASON CITY     CLOUDY    30  25  81 S5        30.33  WCI  25
CHARLES CITY   NOT AVBL
OELWEIN        CLOUDY    30  25  80 NW7       30.35R WCI  23
$$

...ELSEWHERE IN IOWA...


CITY           SKY/WX    TMP DP  RH WIND       PRES   REMARKS
DES MOINES     NOT AVBL
IOWA CITY      NOT AVBL
FORT DODGE     CLOUDY    34  27  75 SW3       30.35R
MARSHALLTOWN   CLOUDY    32  27  81 CALM      30.35S
CEDAR RAPIDS   NOT AVBL
$$

...NORTHERN ILLINOIS...


CITY           SKY/WX    TMP DP  RH WIND       PRES   REMARKS
CHICAGO-OHARE  CLOUDY    33  23  66 W7        30.33R WCI  27
CHICAGO-MIDWAY CLOUDY    34  21  59 W5        30.33S WCI  30
MOLINE         NOT AVBL
ROCKFORD       CLOUDY    32  23  69 W7        30.36R WCI  26
PEORIA         CLOUDY    35  28  75 NW3       30.38S
$$

NOTE: "FAIR" INDICATES FEW OR NO CLOUDS BELOW 12,000 FEET WITH NO
SIGNIFICANT WEATHER AND/OR OBSTRUCTIONS TO VISIBILITY. WIND
SPEEDS ARE IN MILES-PER-HOUR.




USA.gov is the U.S. government's official web portal to all federal, state and local government web resources and services.